Weather History for Crane Lake, MN

Change the Weather History Date:

Sunday, April 22, 2012

  Actual Average Record
Temperature  
Mean Temperature 35 °F -  
Max Temperature 44 °F 52 °F 66 °F (2006)
Min Temperature 26 °F 27 °F 23 °F (1997)
Degree Days  
Heating Degree Days 30    
Moisture  
Dew Point 31 °F    
Average Humidity 90    
Maximum Humidity 100    
Minimum Humidity 57    
Precipitation  
Precipitation 0.13 in - - ()
Sea Level Pressure  
Sea Level Pressure 30.23 in    
Wind  
Wind Speed 0 mph (West)    
Max Wind Speed 5 mph    
Max Gust Speed -    
Visibility 8 miles    
Events Rain , Snow    
Averages and records for this station are not official NWS values.
T = Trace of Precipitation, MM = Missing Value Source: NWS Daily Summary

Daily Weather History Graph

Daily Weather History Graph

Search for Another Location

Airport:

Trip Planner

Search our weather history database for the weather conditions in past years. The results will help you decide how hot, cold, wet, or windy it might be!

Date:

Astronomy

Apr. 22, 2012 Rise Set
Actual Time 6:05 AM CDT 8:11 PM CDT
Civil Twilight 5:32 AM CDT 8:45 PM CDT
Nautical Twilight 4:50 AM CDT 9:27 PM CDT
Astronomical Twilight 4:03 AM CDT 10:14 PM CDT
Moon 6:30 AM CDT (4/22) 9:58 PM CDT (4/22)
Length of Visible Light 15h 13m
Length of Day
14h 05m
New Moon, 2% of the Moon is Illuminated
Apr 22
New Moon
Apr 29
First Quarter
May 5
Full
May 12
Last Quarter
May 20
New

Hourly Weather History & Observations

Time (CDT) Temp. Windchill Dew Point Humidity Pressure Visibility Wind Dir Wind Speed Gust Speed Precip Events Conditions
12:14 AM 30.2 °F - 30.2 °F 100% 30.15 in 5.0 mi Calm Calm - N/A Rain Light Freezing Rain
12:34 AM 30.2 °F - 30.2 °F 100% 30.15 in 7.0 mi Calm Calm - N/A Rain Light Freezing Rain
12:54 AM 32.0 °F - 30.2 °F 93% 30.16 in 3.0 mi Calm Calm - N/A Rain Light Rain
1:14 AM 30.2 °F - 30.2 °F 100% 30.16 in 2.5 mi Calm Calm - 0.01 in   Overcast
1:34 AM 30.2 °F - 30.2 °F 100% 30.17 in 1.8 mi Calm Calm - 0.02 in Snow Light Snow
1:54 AM 30.2 °F - 30.2 °F 100% 30.17 in 1.2 mi Calm Calm - 0.03 in Snow Light Snow
2:14 AM 30.2 °F - 30.2 °F 100% 30.17 in 1.2 mi Calm Calm - 0.02 in Snow Light Snow
2:34 AM 30.2 °F - 30.2 °F 100% 30.17 in 1.2 mi Calm Calm - 0.03 in Snow Light Snow
2:54 AM 30.2 °F - 30.2 °F 100% 30.18 in 1.5 mi Calm Calm - 0.04 in Snow Light Snow
3:14 AM 30.2 °F - 30.2 °F 100% 30.19 in 1.2 mi Calm Calm - N/A Snow Light Snow
3:34 AM 30.2 °F - 30.2 °F 100% 30.19 in 0.8 mi Calm Calm - 0.02 in Snow Light Snow
3:54 AM 30.2 °F - 30.2 °F 100% 30.19 in 1.0 mi Calm Calm - 0.04 in Snow Light Snow
4:14 AM 30.2 °F - 30.2 °F 100% 30.20 in 1.2 mi Calm Calm - 0.01 in Snow Light Snow
4:34 AM 30.2 °F - 30.2 °F 100% 30.20 in 2.0 mi Calm Calm - 0.02 in Snow Light Snow
4:54 AM 30.2 °F - 30.2 °F 100% 30.20 in 2.0 mi Calm Calm - 0.02 in Snow Light Snow
5:14 AM 30.2 °F - 30.2 °F 100% 30.20 in 7.0 mi Calm Calm - N/A Snow Light Snow
5:34 AM 30.2 °F - 30.2 °F 100% 30.21 in 7.0 mi Calm Calm - N/A Snow Light Snow
5:53 AM 30.2 °F - 30.2 °F 100% 30.22 in 4.0 mi Calm Calm - N/A   Mostly Cloudy
6:13 AM 30.2 °F - 30.2 °F 100% 30.23 in 5.0 mi Calm Calm - N/A   Mostly Cloudy
6:33 AM 30.2 °F - 30.2 °F 100% 30.24 in 4.0 mi Calm Calm - N/A Rain Light Freezing Rain
6:53 AM 30.2 °F - 30.2 °F 100% 30.24 in 2.5 mi Calm Calm - N/A Rain Light Freezing Rain
7:13 AM 30.2 °F - 30.2 °F 100% 30.25 in 1.8 mi Calm Calm - N/A Rain Light Freezing Rain
7:33 AM 30.2 °F - 30.2 °F 100% 30.25 in 3.0 mi Calm Calm - N/A Rain Light Freezing Rain
7:53 AM 30.2 °F - 30.2 °F 100% 30.26 in 4.0 mi Calm Calm - N/A Rain Light Freezing Rain
8:13 AM 30.2 °F - 30.2 °F 100% 30.26 in 5.0 mi Calm Calm - N/A Rain Light Freezing Rain
8:33 AM 32.0 °F - 30.2 °F 93% 30.26 in 7.0 mi Calm Calm - N/A   Light Drizzle
8:53 AM 32.0 °F - 30.2 °F 93% 30.27 in 10.0 mi Calm Calm - N/A   Overcast
9:13 AM 32.0 °F - 32.0 °F 100% 30.27 in 10.0 mi Calm Calm - N/A   Overcast
9:33 AM 33.8 °F - 32.0 °F 93% 30.27 in 10.0 mi Calm Calm - N/A   Mostly Cloudy
9:53 AM 33.8 °F - 32.0 °F 93% 30.28 in 10.0 mi Calm Calm - N/A   Overcast
10:13 AM 33.8 °F - 32.0 °F 93% 30.28 in 10.0 mi Calm Calm - N/A   Mostly Cloudy
10:33 AM 33.8 °F - 32.0 °F 93% 30.28 in 10.0 mi Calm Calm - N/A   Overcast
10:53 AM 33.8 °F - 32.0 °F 93% 30.28 in 10.0 mi Calm Calm - N/A   Overcast
11:13 AM 35.6 °F - 32.0 °F 87% 30.28 in 10.0 mi Calm Calm - N/A   Overcast
11:33 AM 35.6 °F - 32.0 °F 87% 30.28 in 10.0 mi Calm Calm - N/A   Overcast
11:53 AM 35.6 °F - 32.0 °F 87% 30.28 in 10.0 mi Calm Calm - N/A   Overcast
12:13 PM 35.6 °F - 32.0 °F 87% 30.28 in 10.0 mi Calm Calm - N/A   Overcast
12:33 PM 35.6 °F 32.8 °F 33.8 °F 93% 30.28 in 10.0 mi NW 3.5 mph - N/A   Mostly Cloudy
12:53 PM 35.6 °F - 33.8 °F 93% 30.28 in 10.0 mi Calm Calm - N/A   Overcast
1:13 PM 35.6 °F - 33.8 °F 93% 30.27 in 10.0 mi Calm Calm - N/A   Mostly Cloudy
1:33 PM 37.4 °F - 33.8 °F 87% 30.27 in 10.0 mi Calm Calm - N/A   Mostly Cloudy
1:53 PM 37.4 °F - 33.8 °F 87% 30.27 in 10.0 mi Calm Calm - N/A   Overcast
2:14 PM 37.4 °F - 33.8 °F 87% 30.26 in 10.0 mi Calm Calm - N/A   Overcast
2:33 PM 37.4 °F - 33.8 °F 87% 30.26 in 10.0 mi Calm Calm - N/A   Overcast
2:54 PM 37.4 °F 34.9 °F 33.8 °F 87% 30.26 in 10.0 mi NNW 3.5 mph - N/A   Overcast
3:13 PM 37.4 °F - 33.8 °F 87% 30.26 in 10.0 mi Calm Calm - N/A   Overcast
3:34 PM 39.2 °F - 33.8 °F 81% 30.26 in 10.0 mi Calm Calm - N/A   Overcast
3:53 PM 39.2 °F - 32.0 °F 75% 30.25 in 10.0 mi Calm Calm - N/A   Mostly Cloudy
4:13 PM 41.0 °F 39.0 °F 30.2 °F 65% 30.25 in 10.0 mi WSW 3.5 mph - N/A   Scattered Clouds
4:33 PM 42.8 °F 40.1 °F 30.2 °F 61% 30.25 in 10.0 mi West 4.6 mph - N/A   Clear
4:54 PM 42.8 °F - 30.2 °F 61% 30.24 in 10.0 mi Calm Calm - N/A   Clear
5:14 PM 42.8 °F - 30.2 °F 61% 30.23 in 10.0 mi Calm Calm - N/A   Scattered Clouds
5:33 PM 44.6 °F - 32.0 °F 61% 30.23 in 10.0 mi Calm Calm - N/A   Clear
5:54 PM 44.6 °F - 30.2 °F 57% 30.23 in 10.0 mi Calm Calm - N/A   Clear
6:13 PM 44.6 °F - 30.2 °F 57% 30.23 in 10.0 mi Calm Calm - N/A   Clear
6:34 PM 44.6 °F - 30.2 °F 57% 30.22 in 10.0 mi Calm Calm - N/A   Clear
6:53 PM 44.6 °F - 30.2 °F 57% 30.22 in 10.0 mi Calm Calm - N/A   Clear
7:14 PM 42.8 °F - 35.6 °F 76% 30.22 in 10.0 mi Calm Calm - N/A   Scattered Clouds
7:33 PM 39.2 °F - 35.6 °F 87% 30.21 in 10.0 mi Calm Calm - N/A   Clear
7:54 PM 35.6 °F - 33.8 °F 93% 30.21 in 10.0 mi Calm Calm - N/A   Clear
8:13 PM 35.6 °F 32.8 °F 33.8 °F 93% 30.21 in 10.0 mi SSW 3.5 mph - N/A   Clear
8:34 PM 32.0 °F - 30.2 °F 93% 30.22 in 10.0 mi Calm Calm - N/A   Scattered Clouds
8:54 PM 30.2 °F - 28.4 °F 93% 30.22 in 10.0 mi Calm Calm - N/A   Clear
9:14 PM 28.4 °F - 28.4 °F 100% 30.23 in 10.0 mi Calm Calm - N/A   Clear
9:33 PM 28.4 °F - 28.4 °F 100% 30.23 in 10.0 mi Calm Calm - N/A   Scattered Clouds
9:53 PM 28.4 °F - 28.4 °F 100% 30.23 in 10.0 mi Calm Calm - N/A   Scattered Clouds
10:13 PM 28.4 °F - 28.4 °F 100% 30.23 in 10.0 mi Calm Calm - N/A   Clear
10:33 PM 28.4 °F - 28.4 °F 100% 30.23 in 10.0 mi Calm Calm - N/A   Clear
10:53 PM 28.4 °F - 26.6 °F 93% 30.22 in 10.0 mi Calm Calm - N/A   Clear
11:13 PM 28.4 °F - 26.6 °F 93% 30.22 in 10.0 mi Calm Calm - N/A   Clear
11:33 PM 26.6 °F - 26.6 °F 100% 30.22 in 10.0 mi Calm Calm - N/A   Clear
11:53 PM 26.6 °F - 26.6 °F 100% 30.22 in 10.0 mi Calm Calm - N/A   Clear